| time (UTC) | temp C | wind direction | speed KPH | gust KPH | rain 1hr cm | rain 24hr cm | rain mn cm | humidity % | barometer mb |
| 20260906195627 | 40 | 227 | 1.6 | 1.6 | 0.00 | 0.00 | 0.00 | 29 | 1014.1 |
| 20260906195123 | 41 | 213 | 3.2 | 4.8 | 0.00 | 0.00 | 0.00 | 29 | 1014.0 |
| 20260906194619 | 39 | 219 | 0.0 | 0.0 | 0.00 | 0.00 | 0.00 | 31 | 1014.3 |
| 20260906194114 | 39 | 228 | 1.6 | 3.2 | 0.00 | 0.00 | 0.00 | 32 | 1014.3 |
| 20260906193609 | 40 | 225 | 0.0 | 1.6 | 0.00 | 0.00 | 0.00 | 30 | 1014.2 |
| 20260906193104 | 38 | 220 | 1.6 | 1.6 | 0.00 | 0.00 | 0.00 | 31 | 1014.5 |
| 20260906192559 | 39 | 223 | 4.8 | 4.8 | 0.00 | 0.00 | 0.00 | 30 | 1014.7 |
| 20260906192058 | 40 | 215 | 6.4 | 6.4 | 0.00 | 0.00 | 0.00 | 29 | 1014.6 |
| 20260906191554 | 41 | 216 | 1.6 | 1.6 | 0.00 | 0.00 | 0.00 | 29 | 1014.7 |
| 20260906191053 | 40 | 218 | 1.6 | 1.6 | 0.00 | 0.00 | 0.00 | 30 | 1014.7 |
| 20260906190552 | 39 | 223 | 1.6 | 1.6 | 0.00 | 0.00 | 0.00 | 29 | 1014.7 |
| 20260906190047 | 40 | 264 | 3.2 | 3.2 | 0.00 | 0.00 | 0.00 | 31 | 1014.8 |
| 20260906185546 | 38 | 198 | 1.6 | 3.2 | 0.00 | 0.00 | 0.00 | 32 | 1015.0 |
| 20260906185045 | 37 | 250 | 1.6 | 3.2 | 0.00 | 0.00 | 0.00 | 35 | 1015.1 |
| 20260906184540 | 37 | 16 | 1.6 | 1.6 | 0.00 | 0.00 | 0.00 | 34 | 1015.0 |
| 20260906184036 | 37 | 225 | 4.8 | 4.8 | 0.00 | 0.00 | 0.00 | 35 | 1015.1 |
| 20260906183532 | 38 | 236 | 6.4 | 9.7 | 0.00 | 0.00 | 0.00 | 33 | 1014.9 |
| 20260906183027 | 38 | 250 | 9.7 | 11.3 | 0.00 | 0.00 | 0.00 | 32 | 1015.4 |
| 20260906182522 | 39 | 209 | 0.0 | 1.6 | 0.00 | 0.00 | 0.00 | 30 | 1015.3 |
| 20260906182019 | 39 | 225 | 3.2 | 4.8 | 0.00 | 0.00 | 0.00 | 32 | 1015.6 |
| 20260906181514 | 38 | 219 | 1.6 | 1.6 | 0.00 | 0.00 | 0.00 | 31 | 1015.6 |
| 20260906181009 | 39 | 164 | 0.0 | 1.6 | 0.00 | 0.00 | 0.00 | 30 | 1015.7 |
| 20260906180504 | 40 | 227 | 6.4 | 6.4 | 0.00 | 0.00 | 0.00 | 29 | 1015.9 |
| 20260906180003 | 39 | 222 | 1.6 | 3.2 | 0.00 | 0.00 | 0.00 | 34 | 1016.1 |
| 20260906175457 | 39 | 195 | 1.6 | 1.6 | 0.00 | 0.00 | 0.00 | 32 | 1016.1 |
| 20260906174956 | 38 | 222 | 0.0 | 1.6 | 0.00 | 0.00 | 0.00 | 34 | 1016.2 |
| 20260906174455 | 37 | 25 | 1.6 | 1.6 | 0.00 | 0.00 | 0.00 | 34 | 1016.6 |
| 20260906173950 | 37 | 136 | 3.2 | 3.2 | 0.00 | 0.00 | 0.00 | 35 | 1016.5 |
| 20260906173445 | 38 | 222 | 1.6 | 3.2 | 0.00 | 0.00 | 0.00 | 35 | 1016.8 |
| 20260906172945 | 38 | 57 | 3.2 | 3.2 | 0.00 | 0.00 | 0.00 | 33 | 1016.6 |
| 20260906172441 | 38 | 219 | 1.6 | 1.6 | 0.00 | 0.00 | 0.00 | 34 | 1016.8 |
| 20260906171936 | 38 | 237 | 1.6 | 1.6 | 0.00 | 0.00 | 0.00 | 33 | 1016.9 |
| 20260906171431 | 38 | 197 | 1.6 | 1.6 | 0.00 | 0.00 | 0.00 | 33 | 1016.8 |
| 20260906170927 | 38 | 201 | 0.0 | 0.0 | 0.00 | 0.00 | 0.00 | 34 | 1017.0 |
| 20260906170423 | 37 | 207 | 0.0 | 0.0 | 0.00 | 0.00 | 0.00 | 35 | 1017.0 |
| 20260906165919 | 37 | 223 | 0.0 | 1.6 | 0.00 | 0.00 | 0.00 | 36 | 1017.1 |
| 20260906165419 | 36 | 215 | 0.0 | 0.0 | 0.00 | 0.00 | 0.00 | 37 | 1017.2 |
| 20260906164914 | 36 | 215 | 1.6 | 3.2 | 0.00 | 0.00 | 0.00 | 39 | 1017.3 |
| 20260906164412 | 36 | 204 | 0.0 | 0.0 | 0.00 | 0.00 | 0.00 | 38 | 1017.2 |
| 20260906163909 | 35 | 224 | 0.0 | 1.6 | 0.00 | 0.00 | 0.00 | 39 | 1017.3 |
| 20260906163405 | 35 | 241 | 1.6 | 3.2 | 0.00 | 0.00 | 0.00 | 38 | 1017.2 |
| 20260906162902 | 35 | 228 | 3.2 | 4.8 | 0.00 | 0.00 | 0.00 | 40 | 1017.3 |
| 20260906162401 | 35 | 345 | 3.2 | 3.2 | 0.00 | 0.00 | 0.00 | 38 | 1017.1 |
| 20260906161857 | 35 | 231 | 1.6 | 1.6 | 0.00 | 0.00 | 0.00 | 40 | 1017.1 |
| 20260906161355 | 35 | 209 | 1.6 | 1.6 | 0.00 | 0.00 | 0.00 | 40 | 1017.2 |
| 20260906160855 | 35 | 211 | 1.6 | 1.6 | 0.00 | 0.00 | 0.00 | 39 | 1017.3 |
| 20260906160355 | 35 | 225 | 0.0 | 1.6 | 0.00 | 0.00 | 0.00 | 40 | 1017.4 |
| 20260906155853 | 35 | 234 | 3.2 | 3.2 | 0.00 | 0.00 | 0.00 | 41 | 1017.2 |
| 20260906155347 | 34 | 223 | 3.2 | 3.2 | 0.00 | 0.00 | 0.00 | 41 | 1017.4 |
| 20260906154844 | 34 | 223 | 3.2 | 4.8 | 0.00 | 0.00 | 0.00 | 43 | 1017.3 |
| 20260906154343 | 33 | 231 | 1.6 | 1.6 | 0.00 | 0.00 | 0.00 | 42 | 1017.1 |
| 20260906153842 | 33 | 217 | 3.2 | 3.2 | 0.00 | 0.00 | 0.00 | 43 | 1017.1 |
| 20260906153341 | 33 | 223 | 0.0 | 1.6 | 0.00 | 0.00 | 0.00 | 47 | 1017.2 |
| 20260906152837 | 32 | 208 | 3.2 | 3.2 | 0.00 | 0.00 | 0.00 | 49 | 1017.3 |
| 20260906152331 | 32 | 228 | 3.2 | 3.2 | 0.00 | 0.00 | 0.00 | 48 | 1017.2 |
| 20260906151831 | 31 | 222 | 1.6 | 1.6 | 0.00 | 0.00 | 0.00 | 50 | 1017.3 |
| 20260906151326 | 31 | 197 | 0.0 | 0.0 | 0.00 | 0.00 | 0.00 | 51 | 1017.2 |
| 20260906150822 | 31 | 225 | 0.0 | 0.0 | 0.00 | 0.00 | 0.00 | 51 | 1017.0 |
| 20260906150318 | 31 | 206 | 0.0 | 1.6 | 0.00 | 0.00 | 0.00 | 51 | 1017.2 |
| 20260906145817 | 30 | 225 | 0.0 | 0.0 | 0.00 | 0.00 | 0.00 | 52 | 1017.0 |
| 20260906145315 | 30 | 217 | 0.0 | 0.0 | 0.00 | 0.00 | 0.00 | 53 | 1016.9 |
| 20260906144811 | 30 | 191 | 0.0 | 0.0 | 0.00 | 0.00 | 0.00 | 53 | 1016.9 |
| 20260906144306 | 30 | 214 | 0.0 | 1.6 | 0.00 | 0.00 | 0.00 | 55 | 1017.0 |
| 20260906143805 | 30 | 214 | 3.2 | 3.2 | 0.00 | 0.00 | 0.00 | 55 | 1016.8 |
| 20260906143302 | 29 | 201 | 0.0 | 0.0 | 0.00 | 0.00 | 0.00 | 57 | 1016.8 |
| 20260906142802 | 28 | 200 | 0.0 | 0.0 | 0.00 | 0.00 | 0.00 | 57 | 1016.9 |
| 20260906142257 | 28 | 218 | 0.0 | 0.0 | 0.00 | 0.00 | 0.00 | 59 | 1017.0 |
| 20260906141756 | 28 | 214 | 1.6 | 1.6 | 0.00 | 0.00 | 0.00 | 61 | 1017.0 |
| 20260906141251 | 27 | 214 | 0.0 | 0.0 | 0.00 | 0.00 | 0.00 | 61 | 1017.1 |
| 20260906140750 | 27 | 214 | 0.0 | 0.0 | 0.00 | 0.00 | 0.00 | 63 | 1017.0 |
| 20260906140245 | 27 | 214 | 1.6 | 1.6 | 0.00 | 0.00 | 0.00 | 64 | 1017.1 |
| 20260906135742 | 26 | 187 | 0.0 | 0.0 | 0.00 | 0.00 | 0.00 | 67 | 1017.2 |
| 20260906135238 | 26 | 187 | 0.0 | 0.0 | 0.00 | 0.00 | 0.00 | 70 | 1016.9 |
| 20260906134733 | 25 | 187 | 0.0 | 0.0 | 0.00 | 0.00 | 0.00 | 75 | 1016.9 |
| 20260906134228 | 25 | 187 | 0.0 | 0.0 | 0.00 | 0.00 | 0.00 | 79 | 1016.9 |
| 20260906133724 | 24 | 187 | 0.0 | 0.0 | 0.00 | 0.00 | 0.00 | 79 | 1016.9 |
| 20260906133219 | 23 | 187 | 0.0 | 0.0 | 0.00 | 0.00 | 0.00 | 78 | 1017.0 |
| 20260906132714 | 23 | 187 | 0.0 | 0.0 | 0.00 | 0.00 | 0.00 | 80 | 1016.7 |
| 20260906132210 | 23 | 187 | 0.0 | 0.0 | 0.00 | 0.00 | 0.00 | 82 | 1016.9 |
| 20260906131705 | 22 | 187 | 0.0 | 0.0 | 0.00 | 0.00 | 0.00 | 83 | 1016.7 |
| 20260906131200 | 22 | 187 | 0.0 | 0.0 | 0.00 | 0.00 | 0.00 | 84 | 1016.7 |
| 20260906130655 | 22 | 187 | 0.0 | 0.0 | 0.00 | 0.00 | 0.00 | 85 | 1016.6 |
| 20260906130151 | 22 | 187 | 0.0 | 0.0 | 0.00 | 0.00 | 0.00 | 86 | 1016.5 |
| 20260906125649 | 22 | 187 | 0.0 | 0.0 | 0.00 | 0.00 | 0.00 | 86 | 1016.7 |
| 20260906125147 | 22 | 187 | 0.0 | 0.0 | 0.00 | 0.00 | 0.00 | 86 | 1016.5 |
| 20260906124643 | 21 | 187 | 0.0 | 0.0 | 0.00 | 0.00 | 0.00 | 86 | 1016.4 |
| 20260906124138 | 21 | 187 | 0.0 | 0.0 | 0.00 | 0.00 | 0.00 | 86 | 1016.4 |
| 20260906123637 | 21 | 187 | 0.0 | 0.0 | 0.00 | 0.00 | 0.00 | 87 | 1016.2 |
| 20260906123132 | 21 | 187 | 0.0 | 0.0 | 0.00 | 0.00 | 0.00 | 87 | 1016.0 |
| 20260906122632 | 21 | 187 | 0.0 | 0.0 | 0.00 | 0.00 | 0.00 | 87 | 1016.1 |
| 20260906122127 | 21 | 187 | 0.0 | 0.0 | 0.00 | 0.00 | 0.00 | 86 | 1016.0 |
| 20260906121623 | 21 | 187 | 0.0 | 0.0 | 0.00 | 0.00 | 0.00 | 86 | 1015.7 |
| 20260906121120 | 21 | 187 | 0.0 | 0.0 | 0.00 | 0.00 | 0.00 | 86 | 1015.6 |
| 20260906120615 | 21 | 187 | 0.0 | 0.0 | 0.00 | 0.00 | 0.00 | 86 | 1015.7 |
| 20260906120113 | 21 | 187 | 0.0 | 0.0 | 0.00 | 0.00 | 0.00 | 86 | 1015.7 |
| 20260906115612 | 21 | 187 | 0.0 | 0.0 | 0.00 | 0.00 | 0.00 | 85 | 1015.4 |
| 20260906115108 | 21 | 187 | 0.0 | 0.0 | 0.00 | 0.00 | 0.00 | 85 | 1015.4 |
| 20260906114607 | 21 | 187 | 0.0 | 0.0 | 0.00 | 0.00 | 0.00 | 85 | 1015.5 |
| 20260906114103 | 21 | 187 | 0.0 | 0.0 | 0.00 | 0.00 | 0.00 | 85 | 1015.6 |
| 20260906113602 | 21 | 187 | 0.0 | 0.0 | 0.00 | 0.00 | 0.00 | 85 | 1015.1 |
| 20260906113057 | 21 | 187 | 0.0 | 0.0 | 0.00 | 0.00 | 0.00 | 85 | 1015.1 |
| 20260906112557 | 21 | 187 | 0.0 | 0.0 | 0.00 | 0.00 | 0.00 | 85 | 1015.1 |
| 20260906112054 | 21 | 187 | 0.0 | 0.0 | 0.00 | 0.00 | 0.00 | 86 | 1015.1 |
| 20260906111553 | 21 | 187 | 0.0 | 0.0 | 0.00 | 0.00 | 0.00 | 86 | 1015.2 |
| 20260906111049 | 21 | 187 | 0.0 | 0.0 | 0.00 | 0.00 | 0.00 | 85 | 1015.1 |
| 20260906110548 | 21 | 187 | 0.0 | 0.0 | 0.00 | 0.00 | 0.00 | 85 | 1015.2 |
| 20260906110048 | 21 | 187 | 0.0 | 0.0 | 0.00 | 0.00 | 0.00 | 85 | 1015.1 |
| 20260906105543 | 21 | 187 | 0.0 | 0.0 | 0.00 | 0.00 | 0.00 | 84 | 1015.2 |
| 20260906105039 | 21 | 187 | 0.0 | 0.0 | 0.00 | 0.00 | 0.00 | 84 | 1015.2 |
| 20260906104537 | 21 | 187 | 0.0 | 0.0 | 0.00 | 0.00 | 0.00 | 84 | 1015.1 |
| 20260906104032 | 21 | 187 | 0.0 | 0.0 | 0.00 | 0.00 | 0.00 | 85 | 1015.1 |
| 20260906103530 | 21 | 187 | 0.0 | 0.0 | 0.00 | 0.00 | 0.00 | 85 | 1015.1 |
| 20260906103026 | 21 | 187 | 0.0 | 0.0 | 0.00 | 0.00 | 0.00 | 85 | 1015.2 |
| 20260906102526 | 21 | 187 | 0.0 | 0.0 | 0.00 | 0.00 | 0.00 | 84 | 1015.4 |
| 20260906102021 | 21 | 187 | 0.0 | 0.0 | 0.00 | 0.00 | 0.00 | 84 | 1015.4 |
| 20260906101521 | 21 | 187 | 0.0 | 0.0 | 0.00 | 0.00 | 0.00 | 84 | 1015.3 |
| 20260906101016 | 21 | 187 | 0.0 | 0.0 | 0.00 | 0.00 | 0.00 | 84 | 1015.2 |
| 20260906100511 | 21 | 187 | 0.0 | 0.0 | 0.00 | 0.00 | 0.00 | 84 | 1015.1 |
| 20260906100006 | 21 | 187 | 0.0 | 0.0 | 0.00 | 0.00 | 0.00 | 84 | 1015.1 |
| 20260906095501 | 21 | 187 | 0.0 | 0.0 | 0.00 | 0.00 | 0.00 | 83 | 1015.0 |
| 20260906094956 | 21 | 187 | 0.0 | 0.0 | 0.00 | 0.00 | 0.00 | 84 | 1015.0 |
| 20260906094455 | 21 | 187 | 0.0 | 0.0 | 0.00 | 0.00 | 0.00 | 83 | 1015.1 |
| 20260906093951 | 21 | 187 | 0.0 | 0.0 | 0.00 | 0.00 | 0.00 | 83 | 1015.2 |
| 20260906093447 | 21 | 187 | 0.0 | 0.0 | 0.00 | 0.00 | 0.00 | 82 | 1015.2 |
| 20260906092948 | 21 | 187 | 0.0 | 0.0 | 0.00 | 0.00 | 0.00 | 81 | 1015.1 |
| 20260906092447 | 22 | 187 | 0.0 | 0.0 | 0.00 | 0.00 | 0.00 | 81 | 1015.3 |
| 20260906091942 | 22 | 187 | 0.0 | 0.0 | 0.00 | 0.00 | 0.00 | 82 | 1015.0 |
| 20260906091438 | 22 | 187 | 0.0 | 0.0 | 0.00 | 0.00 | 0.00 | 81 | 1015.0 |
| 20260906090935 | 22 | 187 | 0.0 | 0.0 | 0.00 | 0.00 | 0.00 | 81 | 1015.1 |
| 20260906090430 | 22 | 187 | 0.0 | 0.0 | 0.00 | 0.00 | 0.00 | 81 | 1015.1 |
| 20260906085930 | 22 | 187 | 0.0 | 0.0 | 0.00 | 0.00 | 0.00 | 80 | 1015.1 |
| 20260906085429 | 22 | 187 | 0.0 | 0.0 | 0.00 | 0.00 | 0.00 | 80 | 1015.0 |
| 20260906084928 | 22 | 187 | 0.0 | 0.0 | 0.00 | 0.00 | 0.00 | 80 | 1015.1 |
| 20260906084423 | 22 | 187 | 0.0 | 0.0 | 0.00 | 0.00 | 0.00 | 79 | 1015.1 |
| 20260906083922 | 22 | 187 | 0.0 | 0.0 | 0.00 | 0.00 | 0.00 | 80 | 1015.1 |
| 20260906083418 | 22 | 187 | 0.0 | 0.0 | 0.00 | 0.00 | 0.00 | 80 | 1015.1 |
| 20260906082917 | 22 | 187 | 0.0 | 0.0 | 0.00 | 0.00 | 0.00 | 80 | 1014.9 |
| 20260906082413 | 22 | 187 | 0.0 | 0.0 | 0.00 | 0.00 | 0.00 | 80 | 1014.9 |
| 20260906081909 | 22 | 187 | 0.0 | 0.0 | 0.00 | 0.00 | 0.00 | 80 | 1014.9 |
| 20260906081404 | 22 | 187 | 0.0 | 0.0 | 0.00 | 0.00 | 0.00 | 79 | 1014.8 |
| 20260906080900 | 22 | 187 | 0.0 | 0.0 | 0.00 | 0.00 | 0.00 | 79 | 1014.8 |
| 20260906080356 | 22 | 187 | 0.0 | 0.0 | 0.00 | 0.00 | 0.00 | 78 | 1015.1 |
| 20260906075855 | 22 | 187 | 0.0 | 0.0 | 0.00 | 0.00 | 0.00 | 78 | 1014.9 |
| 20260906075350 | 22 | 187 | 0.0 | 0.0 | 0.00 | 0.00 | 0.00 | 77 | 1015.0 |
| 20260906074846 | 22 | 187 | 0.0 | 0.0 | 0.00 | 0.00 | 0.00 | 78 | 1014.8 |
| 20260906074345 | 22 | 187 | 0.0 | 0.0 | 0.00 | 0.00 | 0.00 | 78 | 1014.7 |
| 20260906073844 | 22 | 187 | 0.0 | 0.0 | 0.00 | 0.00 | 0.00 | 78 | 1014.7 |
| 20260906073339 | 22 | 187 | 0.0 | 0.0 | 0.00 | 0.00 | 0.00 | 78 | 1014.6 |
| 20260906072836 | 22 | 187 | 0.0 | 0.0 | 0.00 | 0.00 | 0.00 | 77 | 1014.7 |
| 20260906072331 | 23 | 187 | 0.0 | 0.0 | 0.00 | 0.00 | 0.00 | 78 | 1014.5 |
| 20260906071827 | 23 | 187 | 0.0 | 0.0 | 0.00 | 0.00 | 0.00 | 77 | 1014.8 |
| 20260906071328 | 23 | 187 | 0.0 | 0.0 | 0.00 | 0.00 | 0.00 | 77 | 1014.5 |
| 20260906070824 | 23 | 187 | 0.0 | 0.0 | 0.00 | 0.00 | 0.00 | 77 | 1014.6 |
| 20260906070319 | 23 | 187 | 0.0 | 0.0 | 0.00 | 0.00 | 0.00 | 76 | 1014.7 |
| 20260906065820 | 23 | 187 | 0.0 | 0.0 | 0.00 | 0.00 | 0.00 | 75 | 1014.7 |
| 20260906065315 | 23 | 187 | 0.0 | 0.0 | 0.00 | 0.00 | 0.00 | 74 | 1014.6 |
| 20260906064811 | 23 | 187 | 0.0 | 0.0 | 0.00 | 0.00 | 0.00 | 74 | 1014.6 |
| 20260906064307 | 23 | 187 | 0.0 | 0.0 | 0.00 | 0.00 | 0.00 | 74 | 1014.5 |
| 20260906063807 | 23 | 187 | 0.0 | 0.0 | 0.00 | 0.00 | 0.00 | 74 | 1014.4 |
| 20260906063302 | 23 | 187 | 0.0 | 0.0 | 0.00 | 0.00 | 0.00 | 73 | 1014.6 |
| 20260906062757 | 23 | 187 | 0.0 | 0.0 | 0.00 | 0.00 | 0.00 | 72 | 1014.5 |
| 20260906062256 | 24 | 187 | 0.0 | 0.0 | 0.00 | 0.00 | 0.00 | 73 | 1014.6 |
| 20260906061752 | 24 | 187 | 0.0 | 0.0 | 0.00 | 0.00 | 0.00 | 73 | 1014.9 |
| 20260906061248 | 24 | 187 | 0.0 | 0.0 | 0.00 | 0.00 | 0.00 | 72 | 1014.8 |
| 20260906060743 | 25 | 187 | 0.0 | 0.0 | 0.00 | 0.00 | 0.00 | 72 | 1014.9 |
| 20260906060241 | 25 | 187 | 0.0 | 0.0 | 0.00 | 0.00 | 0.00 | 70 | 1014.9 |
| 20260906055736 | 25 | 187 | 0.0 | 0.0 | 0.00 | 0.00 | 0.00 | 70 | 1014.9 |
| 20260906055231 | 25 | 187 | 0.0 | 0.0 | 0.00 | 0.00 | 0.00 | 70 | 1014.8 |
| 20260906054727 | 25 | 187 | 0.0 | 0.0 | 0.00 | 0.00 | 0.00 | 70 | 1014.9 |
| 20260906054222 | 25 | 187 | 0.0 | 0.0 | 0.00 | 0.00 | 0.00 | 71 | 1015.0 |
| 20260906053718 | 25 | 187 | 0.0 | 0.0 | 0.00 | 0.00 | 0.00 | 70 | 1014.7 |
| 20260906053214 | 25 | 187 | 0.0 | 0.0 | 0.00 | 0.00 | 0.00 | 69 | 1014.9 |
| 20260906052709 | 25 | 187 | 0.0 | 0.0 | 0.00 | 0.00 | 0.00 | 68 | 1014.9 |
| 20260906052205 | 26 | 187 | 0.0 | 0.0 | 0.00 | 0.00 | 0.00 | 68 | 1014.8 |
| 20260906051702 | 26 | 187 | 0.0 | 0.0 | 0.00 | 0.00 | 0.00 | 65 | 1015.0 |
| 20260906051201 | 26 | 187 | 1.6 | 1.6 | 0.00 | 0.00 | 0.00 | 64 | 1015.0 |
| 20260906050656 | 26 | 187 | 0.0 | 0.0 | 0.00 | 0.00 | 0.00 | 60 | 1014.7 |
| 20260906050151 | 26 | 187 | 0.0 | 0.0 | 0.00 | 0.00 | 0.00 | 63 | 1014.7 |
| 20260906045650 | 26 | 187 | 0.0 | 0.0 | 0.00 | 0.00 | 0.00 | 64 | 1014.8 |
| 20260906045145 | 27 | 187 | 0.0 | 0.0 | 0.00 | 0.00 | 0.00 | 62 | 1014.9 |
| 20260906044641 | 27 | 187 | 0.0 | 0.0 | 0.00 | 0.00 | 0.00 | 61 | 1014.8 |
| 20260906044136 | 28 | 187 | 0.0 | 0.0 | 0.00 | 0.00 | 0.00 | 57 | 1014.9 |
| 20260906043632 | 29 | 187 | 0.0 | 0.0 | 0.00 | 0.00 | 0.00 | 53 | 1014.9 |
| 20260906043128 | 30 | 187 | 0.0 | 0.0 | 0.00 | 0.00 | 0.00 | 50 | 1014.9 |
| 20260906042627 | 30 | 187 | 0.0 | 0.0 | 0.00 | 0.00 | 0.00 | 50 | 1014.9 |
| 20260906042121 | 30 | 187 | 0.0 | 0.0 | 0.00 | 0.00 | 0.00 | 50 | 1014.8 |
| 20260906041618 | 30 | 187 | 0.0 | 0.0 | 0.00 | 0.00 | 0.00 | 50 | 1014.9 |
| 20260906041118 | 30 | 188 | 0.0 | 0.0 | 0.00 | 0.00 | 0.00 | 50 | 1014.9 |
| 20260906040613 | 30 | 192 | 0.0 | 0.0 | 0.00 | 0.00 | 0.00 | 49 | 1014.7 |
| 20260906040109 | 30 | 192 | 0.0 | 0.0 | 0.00 | 0.00 | 0.00 | 49 | 1014.5 |
| 20260906035604 | 30 | 193 | 0.0 | 1.6 | 0.00 | 0.00 | 0.00 | 49 | 1014.7 |
| 20260906035059 | 30 | 195 | 0.0 | 0.0 | 0.00 | 0.00 | 0.00 | 49 | 1014.7 |
| 20260906034559 | 30 | 207 | 0.0 | 1.6 | 0.00 | 0.00 | 0.00 | 48 | 1014.8 |
| 20260906034054 | 30 | 156 | 0.0 | 1.6 | 0.00 | 0.00 | 0.00 | 48 | 1014.5 |
| 20260906033549 | 30 | 191 | 0.0 | 1.6 | 0.00 | 0.00 | 0.00 | 49 | 1014.3 |
| 20260906033045 | 30 | 191 | 0.0 | 0.0 | 0.00 | 0.00 | 0.00 | 50 | 1014.2 |
| 20260906032541 | 30 | 209 | 0.0 | 0.0 | 0.00 | 0.00 | 0.00 | 51 | 1014.3 |
| 20260906032036 | 30 | 193 | 1.6 | 1.6 | 0.00 | 0.00 | 0.00 | 50 | 1014.4 |
| 20260906031532 | 30 | 205 | 0.0 | 0.0 | 0.00 | 0.00 | 0.00 | 50 | 1014.3 |
| 20260906031027 | 30 | 218 | 0.0 | 0.0 | 0.00 | 0.00 | 0.00 | 50 | 1014.2 |
| 20260906030526 | 30 | 188 | 0.0 | 0.0 | 0.00 | 0.00 | 0.00 | 49 | 1014.4 |
| 20260906030026 | 30 | 182 | 0.0 | 0.0 | 0.00 | 0.00 | 0.00 | 49 | 1014.3 |
| 20260906025526 | 30 | 185 | 0.0 | 0.0 | 0.00 | 0.00 | 0.00 | 50 | 1014.4 |
| 20260906025024 | 30 | 185 | 0.0 | 0.0 | 0.00 | 0.00 | 0.00 | 48 | 1014.2 |
| 20260906024519 | 30 | 186 | 0.0 | 0.0 | 0.00 | 0.00 | 0.00 | 49 | 1014.3 |
| 20260906024019 | 29 | 186 | 0.0 | 0.0 | 0.00 | 0.00 | 0.00 | 50 | 1013.9 |
| 20260906023516 | 28 | 186 | 0.0 | 0.0 | 0.00 | 0.00 | 0.00 | 53 | 1014.1 |
| 20260906023010 | 29 | 186 | 0.0 | 0.0 | 0.00 | 0.00 | 0.00 | 54 | 1014.0 |
| 20260906022506 | 29 | 186 | 0.0 | 0.0 | 0.00 | 0.00 | 0.00 | 53 | 1014.0 |
| 20260906022001 | 30 | 186 | 0.0 | 0.0 | 0.00 | 0.00 | 0.00 | 52 | 1013.7 |
| 20260906021456 | 30 | 186 | 0.0 | 0.0 | 0.00 | 0.00 | 0.00 | 49 | 1013.7 |
| 20260906020950 | 31 | 186 | 0.0 | 0.0 | 0.00 | 0.00 | 0.00 | 47 | 1013.6 |
| 20260906020444 | 31 | 186 | 0.0 | 0.0 | 0.00 | 0.00 | 0.00 | 46 | 1013.4 |
| 20260906015944 | 31 | 186 | 0.0 | 0.0 | 0.00 | 0.00 | 0.00 | 46 | 1013.4 |
| 20260906015443 | 31 | 186 | 0.0 | 0.0 | 0.00 | 0.00 | 0.00 | 47 | 1013.6 |
| 20260906014943 | 31 | 186 | 0.0 | 0.0 | 0.00 | 0.00 | 0.00 | 45 | 1013.3 |
| 20260906014438 | 31 | 186 | 0.0 | 0.0 | 0.00 | 0.00 | 0.00 | 46 | 1013.3 |
| 20260906013934 | 31 | 186 | 0.0 | 0.0 | 0.00 | 0.00 | 0.00 | 48 | 1013.2 |
| 20260906013429 | 31 | 186 | 0.0 | 0.0 | 0.00 | 0.00 | 0.00 | 46 | 1013.0 |
| 20260906012925 | 31 | 186 | 0.0 | 0.0 | 0.00 | 0.00 | 0.00 | 46 | 1013.1 |
| 20260906012425 | 31 | 186 | 0.0 | 0.0 | 0.00 | 0.00 | 0.00 | 44 | 1013.0 |
| 20260906011924 | 32 | 186 | 0.0 | 0.0 | 0.00 | 0.00 | 0.00 | 44 | 1012.8 |
| 20260906011420 | 32 | 186 | 0.0 | 0.0 | 0.00 | 0.00 | 0.00 | 44 | 1012.9 |
| 20260906010915 | 32 | 186 | 0.0 | 0.0 | 0.00 | 0.00 | 0.00 | 42 | 1013.1 |
| 20260906010410 | 32 | 186 | 0.0 | 0.0 | 0.00 | 0.00 | 0.00 | 41 | 1012.8 |
| 20260906005906 | 33 | 186 | 0.0 | 0.0 | 0.00 | 0.00 | 0.00 | 42 | 1012.6 |
| 20260906005406 | 33 | 186 | 0.0 | 0.0 | 0.00 | 0.00 | 0.00 | 41 | 1012.7 |
| 20260906004905 | 33 | 186 | 0.0 | 0.0 | 0.00 | 0.00 | 0.00 | 41 | 1012.6 |
| 20260906004405 | 33 | 187 | 0.0 | 1.6 | 0.00 | 0.00 | 0.00 | 40 | 1012.7 |
| 20260906003900 | 33 | 191 | 0.0 | 0.0 | 0.00 | 0.00 | 0.00 | 40 | 1012.9 |
| 20260906003355 | 33 | 197 | 0.0 | 0.0 | 0.00 | 0.00 | 0.00 | 40 | 1012.7 |
| 20260906002851 | 33 | 197 | 0.0 | 0.0 | 0.00 | 0.00 | 0.00 | 40 | 1012.7 |
| 20260906002350 | 34 | 198 | 0.0 | 0.0 | 0.00 | 0.00 | 0.00 | 39 | 1012.7 |
| 20260906001846 | 34 | 210 | 0.0 | 0.0 | 0.00 | 0.00 | 0.00 | 39 | 1012.9 |
| 20260906001341 | 34 | 216 | 0.0 | 1.6 | 0.00 | 0.00 | 0.00 | 39 | 1012.7 |
| 20260906000836 | 34 | 214 | 0.0 | 1.6 | 0.00 | 0.00 | 0.00 | 39 | 1012.7 |
| 20260906000336 | 35 | 219 | 0.0 | 1.6 | 0.00 | 0.00 | 0.00 | 39 | 1012.6 |
| 20260905235836 | 35 | 199 | 0.0 | 0.0 | 0.00 | 0.00 | 0.00 | 39 | 1012.8 |
| 20260905235331 | 35 | 208 | 0.0 | 0.0 | 0.00 | 0.00 | 0.00 | 37 | 1012.7 |
| 20260905234826 | 35 | 222 | 1.6 | 1.6 | 0.00 | 0.00 | 0.00 | 37 | 1012.9 |
| 20260905234322 | 36 | 214 | 3.2 | 4.8 | 0.00 | 0.00 | 0.00 | 35 | 1012.8 |
| 20260905233816 | 36 | 221 | 3.2 | 4.8 | 0.00 | 0.00 | 0.00 | 35 | 1013.0 |
| 20260905233312 | 37 | 257 | 4.8 | 4.8 | 0.00 | 0.00 | 0.00 | 34 | 1012.7 |
| 20260905232811 | 37 | 219 | 4.8 | 4.8 | 0.00 | 0.00 | 0.00 | 33 | 1012.7 |
| 20260905232307 | 38 | 208 | 4.8 | 4.8 | 0.00 | 0.00 | 0.00 | 30 | 1012.7 |
| 20260905231802 | 38 | 214 | 1.6 | 1.6 | 0.00 | 0.00 | 0.00 | 30 | 1012.7 |
| 20260905231257 | 38 | 155 | 1.6 | 1.6 | 0.00 | 0.00 | 0.00 | 29 | 1012.7 |
| 20260905230754 | 38 | 233 | 4.8 | 4.8 | 0.00 | 0.00 | 0.00 | 30 | 1012.8 |
| 20260905230251 | 39 | 190 | 3.2 | 4.8 | 0.00 | 0.00 | 0.00 | 29 | 1012.6 |
| 20260905225751 | 39 | 223 | 4.8 | 4.8 | 0.00 | 0.00 | 0.00 | 30 | 1012.8 |
| 20260905225246 | 39 | 205 | 1.6 | 1.6 | 0.00 | 0.00 | 0.00 | 29 | 1012.6 |
| 20260905224745 | 38 | 217 | 3.2 | 3.2 | 0.00 | 0.00 | 0.00 | 31 | 1012.7 |
| 20260905224241 | 38 | 216 | 4.8 | 6.4 | 0.00 | 0.00 | 0.00 | 30 | 1012.7 |
| 20260905223737 | 37 | 220 | 3.2 | 4.8 | 0.00 | 0.00 | 0.00 | 33 | 1012.9 |
| 20260905223234 | 38 | 229 | 6.4 | 6.4 | 0.00 | 0.00 | 0.00 | 31 | 1012.7 |
| 20260905222729 | 39 | 220 | 3.2 | 4.8 | 0.00 | 0.00 | 0.00 | 29 | 1012.7 |
| 20260905222228 | 40 | 218 | 3.2 | 4.8 | 0.00 | 0.00 | 0.00 | 30 | 1012.6 |
| 20260905221724 | 40 | 198 | 1.6 | 1.6 | 0.00 | 0.00 | 0.00 | 30 | 1012.7 |
| 20260905221221 | 40 | 248 | 3.2 | 3.2 | 0.00 | 0.00 | 0.00 | 28 | 1012.5 |
| 20260905220717 | 39 | 201 | 6.4 | 6.4 | 0.00 | 0.00 | 0.00 | 29 | 1012.6 |
| 20260905220212 | 38 | 222 | 4.8 | 6.4 | 0.00 | 0.00 | 0.00 | 30 | 1012.5 |
| 20260905215712 | 38 | 230 | 8.0 | 9.7 | 0.00 | 0.00 | 0.00 | 31 | 1012.6 |
| 20260905215208 | 39 | 251 | 3.2 | 4.8 | 0.00 | 0.00 | 0.00 | 31 | 1012.7 |
| 20260905214704 | 39 | 224 | 11.3 | 17.7 | 0.00 | 0.00 | 0.00 | 30 | 1012.4 |
| 20260905214158 | 39 | 220 | 8.0 | 9.7 | 0.00 | 0.00 | 0.00 | 31 | 1012.7 |
| 20260905213654 | 39 | 193 | 4.8 | 4.8 | 0.00 | 0.00 | 0.00 | 29 | 1012.7 |
| 20260905213149 | 40 | 208 | 4.8 | 4.8 | 0.00 | 0.00 | 0.00 | 29 | 1012.7 |
| 20260905212644 | 40 | 193 | 8.0 | 9.7 | 0.00 | 0.00 | 0.00 | 29 | 1012.7 |
| 20260905212144 | 40 | 202 | 3.2 | 4.8 | 0.00 | 0.00 | 0.00 | 30 | 1012.7 |
| 20260905211638 | 40 | 221 | 8.0 | 9.7 | 0.00 | 0.00 | 0.00 | 31 | 1012.7 |
| 20260905211134 | 40 | 260 | 3.2 | 4.8 | 0.00 | 0.00 | 0.00 | 30 | 1012.9 |
| 20260905210631 | 40 | 215 | 3.2 | 4.8 | 0.00 | 0.00 | 0.00 | 28 | 1012.8 |
| 20260905210125 | 39 | 224 | 3.2 | 4.8 | 0.00 | 0.00 | 0.00 | 30 | 1013.3 |
| 20260905205624 | 38 | 228 | 3.2 | 4.8 | 0.00 | 0.00 | 0.00 | 30 | 1013.1 |
| 20260905205124 | 39 | 228 | 3.2 | 3.2 | 0.00 | 0.00 | 0.00 | 29 | 1013.4 |
| 20260905204623 | 40 | 207 | 6.4 | 6.4 | 0.00 | 0.00 | 0.00 | 30 | 1013.2 |
| 20260905204119 | 40 | 194 | 9.7 | 14.5 | 0.00 | 0.00 | 0.00 | 30 | 1013.4 |
| 20260905203619 | 40 | 217 | 0.0 | 1.6 | 0.00 | 0.00 | 0.00 | 32 | 1013.4 |
| 20260905203114 | 39 | 226 | 6.4 | 9.7 | 0.00 | 0.00 | 0.00 | 32 | 1013.6 |
| 20260905202610 | 40 | 225 | 6.4 | 9.7 | 0.00 | 0.00 | 0.00 | 31 | 1013.6 |
| 20260905202105 | 40 | 212 | 0.0 | 0.0 | 0.00 | 0.00 | 0.00 | 31 | 1014.0 |
| 20260905201601 | 40 | 258 | 6.4 | 11.3 | 0.00 | 0.00 | 0.00 | 32 | 1013.8 |
| 20260905201100 | 38 | 225 | 1.6 | 1.6 | 0.00 | 0.00 | 0.00 | 32 | 1013.9 |
| 20260905200556 | 37 | 231 | 3.2 | 3.2 | 0.00 | 0.00 | 0.00 | 33 | 1014.0 |
| 20260905200050 | 38 | 216 | 8.0 | 9.7 | 0.00 | 0.00 | 0.00 | 33 | 1014.0 |